Regional Weather Roundup
Issued by NWS Northern Indiana

Home | Current Version | Previous Version | Graphics & Text | Print | Product List | Glossary On
Versions: 1 2 3 4 5 6 7 8 9 10 11 12 13 14 15 16 17 18 19 20 21 22 23 24 25 26 27 28 29 30 31 32 33 34 35 36 37 38 39 40 41 42 43 44 45 46 47 48 49 50
000
ASUS43 KIWX 010500
RWRIWX

KIWX WEATHER ROUNDUP
NATIONAL WEATHER SERVICE NORTHERN INDIANA
100 AM EDT FRI AUG 01 2014

NOTE: "FAIR" INDICATES FEW OR NO CLOUDS BELOW 12,000 FEET WITH NO
SIGNIFICANT WEATHER AND/OR OBSTRUCTIONS TO VISIBILITY.

* THESE STATIONS ARE NOT UNDER NWS QUALITY CONTROL. THEY ALSO MAY NOT
  REPORT WEATHER SUCH AS PRECIPITATION OR FOG.

INZ001>027-010600-
NORTHERN INDIANA

CITY           SKY/WX    TMP DP  RH WIND       PRES   REMARKS
VALPARAISO     MOCLDY    67  61  81 CALM      30.07R
KNOX*          PTCLDY    62  59  88 S5        30.06S
SOUTH BEND     CLEAR     66  59  78 CALM      30.07R
GOSHEN         CLEAR     65  60  84 S5        30.07S
MONTICELLO*    CLEAR     64  61  91 CALM      30.07S
WARSAW*        CLEAR     64  61  88 CALM      30.08S
ANGOLA*        PTCLDY    61  61 100 CALM      30.08S
FORT WAYNE     PTCLDY    64  60  87 SW5       30.09S
PERU/GRISSOM   CLEAR     64  64 100 SE2       30.09R

$$
INZ028>050-010600-
CENTRAL INDIANA

CITY           SKY/WX    TMP DP  RH WIND       PRES   REMARKS
LAFAYETTE      CLEAR     62  61  96 CALM      30.08R
KOKOMO*        CLEAR     61  57  88 S3        30.10R
MUNCIE*        CLEAR     62  57  83 S3        30.11R
INDIANAPOLIS   CLEAR     66  61  84 CALM      30.10R

$$
MIZ043>046-050>051-056>058-064>065-071>073-077>080-010600-
SOUTHWEST LOWER MICHIGAN

CITY           SKY/WX    TMP DP  RH WIND       PRES   REMARKS
BATTLE CREEK   CLEAR     66  58  75 S7        30.06S
BENTON HARBOR  PTCLDY    62  60  93 CALM      30.05R
COLDWATER*     PTCLDY    66  60  81 CALM      30.08R
HILLSDALE*     CLEAR     59  58  96 CALM      30.09R
HOLLAND        CLEAR     63  57  81 CALM      30.04R
GRAND RAPIDS   PTCLDY    65  61  87 S7        30.04R
KALAMAZOO      CLEAR     63  58  83 SW6       30.06R
STURGIS*       MOCLDY    63  61  94 CALM      30.07S
THREE RIVERS*  MOCLDY    65  61  88 CALM      30.07S

$$
OHZ001>008-015>018-024>025-010600-
NORTHWEST OHIO

CITY           SKY/WX    TMP DP  RH WIND       PRES   REMARKS
DEFIANCE       MOCLDY    65  62  90 CALM      30.08S
FINDLAY        CLOUDY    67  61  81 S7        30.08S
TOLEDO EXPRESS CLEAR     62  59  90 CALM      30.07S
TOLEDO METCALF CLEAR     65  58  78 CALM      30.08S
LIMA           PTCLDY    65  59  81 S5        30.11R

$$
&&


USA.gov is the U.S. government's official web portal to all federal, state and local government web resources and services.